Weather History for KTPA - August, 2013

Change the Weather History Date:

Sunday, August 18, 2013

  Actual Average Record
Temperature  
Mean Temperature 84 °F 83 °F  
Max Temperature 92 °F 90 °F 95 °F (1951)
Min Temperature 75 °F 76 °F 70 °F (1937)
Degree Days  
Heating Degree Days 0 0  
Month to date heating degree days 0 0  
Since 1 June heating degree days 0 0  
Since 1 July heating degree days 0 0  
Cooling Degree Days 19 18  
Month to date cooling degree days 352 324  
Year to date cooling degree days 2399 2275  
Since 1 June cooling degree days 1424 1398  
Growing Degree Days 33 (Base 50)    
Moisture  
Dew Point 74 °F    
Average Humidity 73    
Maximum Humidity 94    
Minimum Humidity 52    
Precipitation  
Precipitation 1.53 in 0.25 in 1.92 in (1999)
Month to date precipitation 8.38 4.49  
Year to date precipitation 38.99 30.44  
Sea Level Pressure  
Sea Level Pressure 30.07 in    
Wind  
Wind Speed 5 mph (ESE)    
Max Wind Speed 20 mph    
Max Gust Speed 25 mph    
Visibility 9 miles    
Events Rain , Thunderstorm    
T = Trace of Precipitation, MM = Missing Value Source: NWS Daily Summary

Daily Weather History Graph

Daily Weather History Graph

Search for Another Location

Airport or City:

Trip Planner

Search our weather history database for the weather conditions in past years. The results will help you decide how hot, cold, wet, or windy it might be!

Date:

Astronomy

Aug. 18, 2013 Rise Set
Actual Time 7:01 AM EDT 8:05 PM EDT
Civil Twilight 6:37 AM EDT 8:29 PM EDT
Nautical Twilight 6:08 AM EDT 8:58 PM EDT
Astronomical Twilight 5:38 AM EDT 9:28 PM EDT
Moon 6:05 PM EDT (8/18) 4:17 AM EDT (8/18)
Length of Visible Light 13h 52m
Length of Day
13h 03m
Waxing Gibbous, 92% of the Moon is Illuminated
Aug 18
Waxing Gibbous
Aug 20
Full
Aug 28
Last Quarter
Sep 5
New
Sep 12
First Quarter

Hourly Weather History & Observations

Time (EDT) Temp. Heat Index Dew Point Humidity Pressure Visibility Wind Dir Wind Speed Gust Speed Precip Events Conditions
12:53 AM 80.1 °F 85.1 °F 75.0 °F 85% 30.09 in 10.0 mi Variable 4.6 mph - N/A   Mostly Cloudy
1:08 AM 78.8 °F - 75.2 °F 89% 30.10 in 4.0 mi East 4.6 mph - 0.02 in Rain , Thunderstorm Light Thunderstorms and Rain
1:38 AM 78.8 °F - 75.2 °F 89% 30.08 in 10.0 mi NE 5.8 mph - 0.06 in   Overcast
1:53 AM 78.1 °F - 75.0 °F 90% 30.08 in 10.0 mi NE 5.8 mph - 0.06 in   Mostly Cloudy
2:53 AM 78.1 °F - 75.0 °F 90% 30.07 in 10.0 mi ENE 5.8 mph - N/A   Overcast
3:53 AM 78.1 °F - 75.0 °F 90% 30.05 in 10.0 mi East 3.5 mph - N/A   Mostly Cloudy
4:53 AM 78.1 °F - 75.9 °F 93% 30.05 in 10.0 mi Calm Calm - N/A   Partly Cloudy
5:53 AM 78.1 °F - 75.9 °F 93% 30.05 in 10.0 mi East 3.5 mph - N/A   Partly Cloudy
6:53 AM 79.0 °F - 75.9 °F 90% 30.06 in 10.0 mi ESE 3.5 mph - N/A   Scattered Clouds
7:53 AM 79.0 °F - 75.9 °F 90% 30.06 in 10.0 mi East 3.5 mph - N/A   Scattered Clouds
8:53 AM 82.0 °F 89.4 °F 75.9 °F 82% 30.07 in 10.0 mi Variable 3.5 mph - N/A   Scattered Clouds
9:53 AM 84.0 °F 92.6 °F 75.9 °F 76% 30.09 in 10.0 mi SE 8.1 mph - N/A   Scattered Clouds
10:53 AM 86.0 °F 93.8 °F 73.9 °F 67% 30.09 in 10.0 mi Variable 6.9 mph - N/A   Scattered Clouds
11:16 AM 86.0 °F 95.1 °F 75.2 °F 70% 30.09 in 10.0 mi SE 8.1 mph - N/A   Mostly Cloudy
11:43 AM 86.0 °F 93.4 °F 73.4 °F 66% 30.09 in 10.0 mi Variable 5.8 mph - N/A   Mostly Cloudy
11:53 AM 87.1 °F 95.4 °F 73.9 °F 65% 30.09 in 10.0 mi Variable 3.5 mph - N/A   Mostly Cloudy
12:53 PM 89.1 °F 97.0 °F 73.0 °F 59% 30.08 in 10.0 mi ENE 4.6 mph - N/A   Mostly Cloudy
1:53 PM 89.1 °F 96.0 °F 72.0 °F 57% 30.06 in 10.0 mi SE 8.1 mph - N/A   Mostly Cloudy
2:53 PM 91.0 °F 98.2 °F 72.0 °F 53% 30.04 in 10.0 mi Variable 5.8 mph - N/A   Mostly Cloudy
2:57 PM 89.6 °F 96.2 °F 71.6 °F 55% 30.04 in 10.0 mi Variable 6.9 mph - N/A Thunderstorm Thunderstorm
3:53 PM 84.0 °F 92.6 °F 75.9 °F 76% 30.03 in 10.0 mi West 5.8 mph - 0.36 in Thunderstorm Thunderstorm
4:53 PM 84.0 °F 91.9 °F 75.0 °F 74% 30.04 in 10.0 mi NE 11.5 mph 17.3 mph N/A Thunderstorm Thunderstorm
5:07 PM 82.4 °F 89.5 °F 75.2 °F 79% 30.04 in 4.0 mi Variable 6.9 mph 16.1 mph 0.00 in Rain , Thunderstorm Thunderstorms and Rain
5:39 PM 77.0 °F - 73.4 °F 89% 30.06 in 6.0 mi SSW 4.6 mph - 0.25 in Rain , Thunderstorm Light Thunderstorms and Rain
5:53 PM 78.1 °F - 75.0 °F 90% 30.05 in 6.0 mi Calm Calm - 0.31 in Rain , Thunderstorm Light Thunderstorms and Rain
6:53 PM 75.9 °F - 73.0 °F 91% 30.08 in 6.0 mi SE 10.4 mph 23.0 mph 0.01 in Rain , Thunderstorm Light Thunderstorms and Rain
7:00 PM 75.2 °F - 73.4 °F 94% 30.08 in 1.5 mi SE 9.2 mph - 0.15 in Rain , Thunderstorm Light Thunderstorms and Rain
7:03 PM 75.2 °F - 73.4 °F 94% 30.08 in 1.5 mi SE 8.1 mph - 0.23 in Rain , Thunderstorm Heavy Thunderstorms and Rain
7:30 PM 75.2 °F - 73.4 °F 94% 30.08 in 4.0 mi South 4.6 mph - 0.64 in Rain , Thunderstorm Light Thunderstorms and Rain
7:53 PM 75.9 °F - 73.0 °F 91% 30.09 in 6.0 mi Calm Calm - 0.68 in Rain , Thunderstorm Light Thunderstorms and Rain
8:41 PM 75.2 °F - 73.4 °F 94% 30.09 in 9.0 mi NW 5.8 mph - 0.09 in Rain Light Rain
8:53 PM 75.0 °F - 73.9 °F 96% 30.08 in 10.0 mi Variable 4.6 mph - 0.09 in Rain Light Rain
9:53 PM 75.9 °F - 73.9 °F 94% 30.09 in 10.0 mi Variable 3.5 mph - 0.00 in Rain Light Rain
10:53 PM 77.0 °F - 75.0 °F 94% 30.10 in 10.0 mi East 4.6 mph - 0.00 in Rain Light Rain
11:53 PM 77.0 °F - 75.0 °F 94% 30.09 in 10.0 mi Calm Calm - 0.02 in   Mostly Cloudy